Change the Weather History Date:

Monday, September 8, 2014

  Actual Average Record
Temperature  
Mean Temperature 80 °F -  
Max Temperature 86 °F 87 °F 95 °F (2001)
Min Temperature 73 °F 76 °F 71 °F (1999)
Cooling Degree Days 14    
Growing Degree Days 30 (Base 50)    
Moisture  
Dew Point 73 °F    
Average Humidity 74    
Maximum Humidity 94    
Minimum Humidity 61    
Precipitation  
Precipitation 0.16 in 0.52 in - ()
Sea Level Pressure  
Sea Level Pressure 29.88 in    
Wind  
Wind Speed 9 mph ()    
Max Wind Speed 26 mph    
Max Gust Speed 39 mph    
Visibility 5.4 miles    
Events Rain    
Averages and records for this station are not official NWS values.
T = Trace of Precipitation, MM = Missing Value Source: Averaged Metar Reports

Daily Weather History Graph

Daily Weather History Graph

Search for Another Location

Airport or City:

Trip Planner

Search our weather history database for the weather conditions in past years. The results will help you decide how hot, cold, wet, or windy it might be!

Date:

Astronomy

Sep. 08, 2014 Rise Set
Actual Time 6:17 AM ICT 6:31 PM ICT
Civil Twilight 5:56 AM ICT 6:52 PM ICT
Nautical Twilight 5:32 AM ICT 7:16 PM ICT
Astronomical Twilight 5:07 AM ICT 7:40 PM ICT
Moon 5:50 PM ICT (9/8) 5:12 AM ICT (9/8)
Length of Visible Light 12h 55m
Length of Day
12h 13m
Waxing Gibbous, 99% of the Moon is Illuminated
Sep 8
Waxing Gibbous
Sep 9
Full
Sep 16
Last Quarter
Sep 24
New
Oct 2
First Quarter

Hourly Weather History & Observations

Time (ICT) Temp. Heat Index Dew Point Humidity Pressure Visibility Wind Dir Wind Speed Gust Speed Precip Events Conditions
12:00 AM 80.6 °F 84.6 °F 71.6 °F 74% 29.95 in 5.0 mi WNW 10.4 mph - N/A   Mostly Cloudy
12:30 AM 82.4 °F 87.2 °F 71.6 °F 70% 29.92 in 5.0 mi West 13.8 mph - N/A   Mostly Cloudy
1:00 AM 83 °F - 76 °F 74% 29.86 in 5 mi Calm Calm - -   Mist
1:00 AM 80.6 °F 85.4 °F 73.4 °F 79% 29.92 in 4.3 mi West 8.1 mph - N/A Rain Light Rain
1:30 AM 80.6 °F 85.4 °F 73.4 °F 79% 29.89 in 4.3 mi West 11.5 mph - N/A   Mostly Cloudy
2:00 AM 80.6 °F 83.2 °F 68.0 °F 65% 29.89 in 1.9 mi West 11.5 mph 28.8 mph N/A Rain Rain
3:00 AM 78.8 °F - 71.6 °F 78% 29.89 in 3.1 mi West 21.9 mph - N/A Rain Light Rain
4:00 AM 81 °F - 75 °F 78% 29.81 in 5 mi Calm Calm - -   Mist
5:00 AM 80.6 °F 84.6 °F 71.6 °F 74% 29.89 in 5.0 mi WNW 11.5 mph - N/A   Mostly Cloudy
5:30 AM 80.6 °F 84.6 °F 71.6 °F 74% 29.89 in 5.0 mi WNW 13.8 mph - N/A   Mostly Cloudy
6:00 AM 78.8 °F - 71.6 °F 78% 29.89 in 5.0 mi WNW 17.3 mph - N/A   Mostly Cloudy
6:30 AM 78.8 °F - 71.6 °F 78% 29.92 in 4.3 mi WNW 11.5 mph - N/A Rain Light Rain
7:00 AM 80 °F - 70 °F 65% 29.86 in 5 mi West 5.8 mph - - Rain Light Rain
7:00 AM 77.0 °F - 71.6 °F 83% 29.92 in 4.3 mi WNW 9.2 mph - N/A Rain Light Rain
7:30 AM 77.0 °F - 73.4 °F 89% 29.92 in 4.3 mi Variable 2.3 mph - N/A Rain Light Rain
8:00 AM 78.8 °F - 75.2 °F 89% 29.95 in 4.3 mi Variable 3.5 mph - N/A Rain Light Rain
9:00 AM 80.6 °F 86.2 °F 75.2 °F 84% 29.95 in 5.0 mi WSW 5.8 mph - N/A Rain Light Rain
9:30 AM 80.6 °F 86.2 °F 75.2 °F 84% 29.95 in 6.2 mi SSW 4.6 mph - N/A   Mostly Cloudy
10:00 AM 83 °F - 73 °F 64% 29.89 in 6 mi Calm Calm - -   Partly Cloudy
10:30 AM 84.2 °F 90.9 °F 73.4 °F 70% 29.95 in 6.2 mi WSW 5.8 mph - N/A   Mostly Cloudy
11:00 AM 84.2 °F 89.6 °F 71.6 °F 66% 29.92 in 6.2 mi West 9.2 mph - N/A   Mostly Cloudy
11:30 AM 84.2 °F 90.9 °F 73.4 °F 70% 29.92 in 6.2 mi West 11.5 mph - N/A   Mostly Cloudy
12:00 PM 84.2 °F 90.9 °F 73.4 °F 70% 29.89 in 6.2 mi West 9.2 mph - N/A   Mostly Cloudy
12:30 PM 86.0 °F 93.4 °F 73.4 °F 66% 29.89 in 6.2 mi West 9.2 mph - N/A   Mostly Cloudy
1:00 PM 86 °F - 74 °F 61% 29.87 in 6 mi West 5.8 mph - -   Partly Cloudy
1:00 PM 86.0 °F 93.4 °F 73.4 °F 66% 29.86 in 6.2 mi West 9.2 mph - N/A   Mostly Cloudy
1:30 PM 84.2 °F 90.9 °F 73.4 °F 70% 29.86 in 6.2 mi WNW 11.5 mph - N/A   Mostly Cloudy
2:00 PM 84.2 °F 90.9 °F 73.4 °F 70% 29.86 in 6.2 mi West 11.5 mph - N/A   Mostly Cloudy
2:30 PM 84.2 °F 90.9 °F 73.4 °F 70% 29.83 in 6.2 mi West 11.5 mph - N/A   Mostly Cloudy
3:00 PM 84.2 °F 90.9 °F 73.4 °F 70% 29.83 in 6.2 mi West 10.4 mph - N/A   Mostly Cloudy
3:30 PM 84.2 °F 90.9 °F 73.4 °F 70% 29.80 in 6.2 mi West 9.2 mph - N/A   Mostly Cloudy
4:00 PM 84 °F - 75 °F 68% 29.80 in 6 mi Calm Calm - -   Scattered Clouds
4:00 PM 84.2 °F 90.9 °F 73.4 °F 70% 29.80 in 6.2 mi WNW 8.1 mph - N/A   Mostly Cloudy
4:30 PM 82.4 °F 88.2 °F 73.4 °F 74% 29.80 in 6.2 mi West 9.2 mph - N/A   Mostly Cloudy
5:00 PM 82.4 °F 88.2 °F 73.4 °F 74% 29.80 in 6.2 mi WNW 9.2 mph - N/A   Mostly Cloudy
5:30 PM 82.4 °F 88.2 °F 73.4 °F 74% 29.80 in 6.2 mi West 9.2 mph - N/A   Mostly Cloudy
6:00 PM 82.4 °F 88.2 °F 73.4 °F 74% 29.83 in 6.2 mi West 11.5 mph - N/A   Mostly Cloudy
6:30 PM 82.4 °F 88.2 °F 73.4 °F 74% 29.83 in 6.2 mi West 8.1 mph - N/A   Mostly Cloudy
7:00 PM 83 °F - 75 °F 70% 29.79 in 6 mi Calm Calm - -   Scattered Clouds
7:00 PM 82.4 °F 88.2 °F 73.4 °F 74% 29.83 in 6.2 mi West 11.5 mph - N/A   Mostly Cloudy
7:30 PM 82.4 °F 88.2 °F 73.4 °F 74% 29.86 in 6.2 mi West 13.8 mph - N/A   Mostly Cloudy
8:00 PM 84.2 °F 90.9 °F 73.4 °F 70% 29.86 in 6.2 mi West 15.0 mph - N/A   Mostly Cloudy
8:30 PM 84.2 °F 90.9 °F 73.4 °F 70% 29.89 in 5.6 mi West 13.8 mph - N/A   Mostly Cloudy
9:00 PM 84.2 °F 90.9 °F 73.4 °F 70% 29.89 in 5.6 mi West 15.0 mph - N/A   Mostly Cloudy
9:30 PM 82.4 °F 88.2 °F 73.4 °F 74% 29.89 in 5.6 mi WNW 12.7 mph - N/A   Mostly Cloudy
10:00 PM 84 °F - 76 °F 70% 29.85 in 6 mi Calm Calm - -   Scattered Clouds
10:00 PM 82.4 °F 88.2 °F 73.4 °F 74% 29.89 in 5.6 mi West 11.5 mph - N/A   Mostly Cloudy
10:30 PM 75.2 °F - 71.6 °F 89% 29.95 in 1.9 mi West 26.5 mph 39.1 mph N/A Rain Heavy Rain
11:00 PM 73.4 °F - 71.6 °F 94% 29.92 in 4.3 mi WNW 8.1 mph - N/A Rain Light Rain
11:30 PM 77.0 °F - 73.4 °F 89% 29.92 in 4.3 mi Variable 4.6 mph - N/A Rain Light Rain